Precipitable_Water
0.92 0.91 0.91 0.91 0.90 0.89 0.89 0.89 0.87 0.86 0.83 0.80 0.77 0.75 0.74 0.74 0.74 0.73 0.73 0.70 0.69 0.67 0.66 0.65 0.64 0.62 0.61 0.60 0.58 0.57 0.56 0.55 0.55 0.55 0.53 0.52 0.53 0.52 0.53 0.53 0.51 0.53 0.54 0.55 0.58 0.58 0.58 0.58 0.60 0.63 0.65 0.64 0.66 0.68 0.69 0.70 0.71 0.71 0.72 0.72 0.70 0.71 0.71 0.68 0.62 0.60 0.68 0.83 0.85 0.87 1.03 1.17 1.14 1.17 1.12 1.17 1.25 1.32 1.36 1.42 1.49 1.47 1.47 1.48 1.49
0.88 0.87 0.87 0.88 0.86 0.86 0.85 0.85 0.84 0.82 0.79 0.77 0.74 0.72 0.72 0.72 0.72 0.70 0.67 0.67 0.66 0.64 0.63 0.62 0.61 0.60 0.59 0.57 0.56 0.55 0.53 0.51 0.50 0.49 0.46 0.45 0.45 0.45 0.45 0.44 0.44 0.45 0.46 0.46 0.48 0.51 0.52 0.51 0.53 0.55 0.59 0.59 0.60 0.61 0.64 0.66 0.67 0.66 0.66 0.67 0.67 0.68 0.73 0.68 0.64 0.62 0.57 0.67 0.73 0.83 0.87 0.97 1.02 1.19 1.13 1.12 1.15 1.25 1.27 1.32 1.41 1.47 1.46 1.45 1.46
0.86 0.85 0.83 0.82 0.81 0.81 0.81 0.80 0.80 0.78 0.76 0.75 0.72 0.71 0.70 0.69 0.69 0.66 0.64 0.63 0.62 0.61 0.60 0.59 0.58 0.57 0.55 0.54 0.52 0.50 0.48 0.46 0.46 0.44 0.42 0.40 0.39 0.39 0.40 0.39 0.38 0.38 0.38 0.40 0.41 0.44 0.44 0.45 0.46 0.49 0.52 0.52 0.54 0.56 0.59 0.59 0.61 0.60 0.61 0.64 0.64 0.65 0.68 0.69 0.65 0.59 0.59 0.60 0.69 0.68 0.74 0.84 0.90 0.98 1.12 1.18 1.21 1.25 1.23 1.27 1.32 1.40 1.46 1.46 1.43
0.83 0.82 0.80 0.79 0.79 0.79 0.77 0.77 0.76 0.75 0.73 0.72 0.70 0.69 0.67 0.65 0.64 0.62 0.61 0.60 0.59 0.58 0.57 0.55 0.54 0.53 0.51 0.50 0.47 0.45 0.44 0.43 0.41 0.40 0.37 0.37 0.36 0.36 0.36 0.36 0.36 0.36 0.36 0.38 0.39 0.39 0.40 0.40 0.42 0.44 0.46 0.45 0.47 0.50 0.52 0.53 0.53 0.54 0.55 0.59 0.60 0.61 0.64 0.66 0.67 0.64 0.62 0.58 0.62 0.67 0.69 0.70 0.78 0.88 0.97 1.14 1.15 1.15 1.20 1.20 1.33 1.33 1.41 1.47 1.47
0.82 0.80 0.79 0.78 0.77 0.76 0.75 0.75 0.73 0.71 0.69 0.68 0.66 0.65 0.63 0.61 0.60 0.59 0.57 0.56 0.55 0.54 0.53 0.52 0.51 0.50 0.48 0.46 0.44 0.43 0.41 0.39 0.36 0.35 0.34 0.35 0.35 0.35 0.34 0.35 0.35 0.35 0.36 0.36 0.37 0.37 0.38 0.38 0.40 0.42 0.42 0.41 0.42 0.43 0.45 0.46 0.48 0.49 0.50 0.52 0.53 0.56 0.59 0.62 0.63 0.65 0.62 0.59 0.60 0.66 0.71 0.71 0.74 0.78 0.86 0.87 0.97 1.14 1.22 1.19 1.22 1.25 1.33 1.42 1.46
0.81 0.79 0.78 0.76 0.75 0.74 0.73 0.72 0.69 0.68 0.67 0.65 0.64 0.62 0.61 0.59 0.57 0.55 0.54 0.52 0.52 0.51 0.50 0.49 0.49 0.47 0.46 0.44 0.42 0.40 0.38 0.35 0.33 0.32 0.32 0.32 0.34 0.34 0.34 0.33 0.34 0.34 0.35 0.35 0.35 0.37 0.37 0.38 0.39 0.41 0.41 0.40 0.40 0.41 0.41 0.41 0.42 0.43 0.44 0.47 0.49 0.51 0.51 0.54 0.59 0.61 0.61 0.60 0.60 0.59 0.66 0.67 0.69 0.72 0.77 0.85 0.90 1.01 1.10 1.16 1.14 1.16 1.21 1.27 1.37
0.79 0.78 0.77 0.75 0.73 0.72 0.70 0.69 0.68 0.66 0.64 0.62 0.61 0.59 0.57 0.55 0.53 0.51 0.51 0.50 0.50 0.49 0.49 0.47 0.46 0.45 0.44 0.41 0.39 0.37 0.34 0.32 0.31 0.30 0.30 0.30 0.32 0.32 0.32 0.32 0.33 0.33 0.34 0.35 0.36 0.37 0.37 0.38 0.39 0.40 0.40 0.40 0.40 0.40 0.40 0.40 0.40 0.40 0.41 0.43 0.44 0.45 0.45 0.47 0.50 0.52 0.55 0.57 0.58 0.60 0.61 0.67 0.69 0.65 0.72 0.81 0.84 0.86 0.88 0.97 0.99 1.13 1.22 1.23 1.25
0.77 0.76 0.75 0.73 0.71 0.70 0.68 0.68 0.65 0.63 0.61 0.59 0.57 0.55 0.53 0.52 0.51 0.51 0.50 0.49 0.48 0.47 0.45 0.45 0.44 0.43 0.41 0.39 0.37 0.35 0.33 0.31 0.29 0.29 0.28 0.29 0.30 0.32 0.33 0.33 0.32 0.32 0.33 0.34 0.35 0.36 0.37 0.38 0.39 0.40 0.41 0.41 0.41 0.41 0.41 0.40 0.40 0.39 0.41 0.42 0.42 0.42 0.41 0.43 0.44 0.46 0.48 0.51 0.53 0.54 0.58 0.60 0.64 0.69 0.73 0.76 0.74 0.76 0.84 0.91 0.98 1.00 1.06 1.10 1.18
0.75 0.74 0.73 0.71 0.69 0.68 0.66 0.64 0.62 0.60 0.58 0.55 0.53 0.51 0.50 0.50 0.50 0.49 0.49 0.48 0.48 0.46 0.45 0.43 0.41 0.40 0.38 0.37 0.35 0.33 0.32 0.30 0.29 0.28 0.27 0.27 0.30 0.32 0.33 0.33 0.32 0.32 0.32 0.33 0.35 0.35 0.36 0.37 0.38 0.40 0.40 0.41 0.42 0.42 0.42 0.43 0.42 0.39 0.40 0.41 0.41 0.41 0.40 0.41 0.41 0.42 0.44 0.45 0.47 0.52 0.55 0.57 0.60 0.61 0.62 0.66 0.69 0.71 0.78 0.86 0.97 1.05 1.02 1.03 1.10
0.73 0.72 0.70 0.68 0.66 0.63 0.61 0.60 0.59 0.57 0.54 0.52 0.51 0.50 0.49 0.49 0.48 0.48 0.47 0.46 0.45 0.44 0.42 0.40 0.38 0.36 0.34 0.34 0.33 0.32 0.30 0.30 0.29 0.28 0.28 0.27 0.29 0.32 0.33 0.33 0.32 0.32 0.32 0.32 0.33 0.35 0.36 0.37 0.38 0.39 0.39 0.40 0.41 0.41 0.41 0.42 0.43 0.43 0.43 0.43 0.42 0.41 0.41 0.40 0.40 0.41 0.42 0.41 0.43 0.45 0.47 0.51 0.56 0.60 0.61 0.65 0.71 0.75 0.76 0.80 0.81 0.85 0.92 0.97 1.07
0.72 0.70 0.68 0.65 0.62 0.60 0.59 0.57 0.55 0.52 0.52 0.51 0.51 0.49 0.48 0.48 0.47 0.46 0.44 0.43 0.42 0.40 0.38 0.36 0.34 0.34 0.33 0.32 0.32 0.31 0.30 0.28 0.28 0.27 0.27 0.27 0.29 0.31 0.32 0.32 0.32 0.32 0.31 0.31 0.31 0.33 0.34 0.36 0.37 0.39 0.39 0.40 0.40 0.40 0.39 0.39 0.40 0.42 0.44 0.45 0.47 0.46 0.43 0.42 0.42 0.44 0.43 0.42 0.44 0.44 0.45 0.47 0.52 0.60 0.62 0.65 0.69 0.71 0.71 0.76 0.83 0.87 0.83 0.89 0.87
0.69 0.67 0.64 0.61 0.59 0.58 0.56 0.54 0.52 0.51 0.52 0.51 0.49 0.49 0.48 0.46 0.44 0.42 0.41 0.40 0.39 0.37 0.35 0.33 0.33 0.33 0.33 0.32 0.31 0.30 0.28 0.27 0.27 0.26 0.26 0.27 0.28 0.30 0.32 0.31 0.31 0.31 0.31 0.32 0.32 0.33 0.33 0.34 0.36 0.38 0.39 0.40 0.40 0.40 0.39 0.38 0.39 0.41 0.42 0.44 0.46 0.49 0.51 0.49 0.46 0.44 0.45 0.44 0.43 0.44 0.46 0.45 0.49 0.56 0.61 0.64 0.65 0.70 0.73 0.75 0.78 0.83 0.82 0.87 0.91
0.66 0.63 0.61 0.59 0.57 0.56 0.57 0.56 0.56 0.55 0.53 0.51 0.49 0.47 0.44 0.41 0.39 0.38 0.37 0.37 0.36 0.34 0.33 0.33 0.32 0.33 0.32 0.31 0.30 0.29 0.27 0.26 0.26 0.25 0.25 0.26 0.28 0.29 0.31 0.32 0.31 0.30 0.31 0.32 0.32 0.33 0.34 0.34 0.34 0.36 0.38 0.39 0.40 0.40 0.39 0.39 0.39 0.40 0.42 0.44 0.47 0.49 0.51 0.52 0.53 0.52 0.51 0.48 0.47 0.46 0.49 0.50 0.49 0.51 0.60 0.65 0.70 0.66 0.69 0.70 0.73 0.83 0.87 0.81 0.82
0.65 0.63 0.63 0.62 0.61 0.60 0.59 0.58 0.53 0.51 0.49 0.46 0.43 0.40 0.39 0.37 0.37 0.36 0.36 0.35 0.33 0.32 0.32 0.31 0.31 0.31 0.31 0.31 0.31 0.29 0.26 0.26 0.25 0.25 0.25 0.26 0.27 0.29 0.32 0.31 0.31 0.31 0.32 0.32 0.33 0.33 0.34 0.34 0.34 0.34 0.36 0.38 0.40 0.40 0.39 0.40 0.40 0.41 0.41 0.43 0.45 0.48 0.50 0.52 0.52 0.54 0.56 0.55 0.53 0.50 0.54 0.59 0.54 0.55 0.60 0.67 0.66 0.63 0.66 0.66 0.71 0.74 0.81 0.79 0.84
0.61 0.60 0.58 0.57 0.54 0.52 0.49 0.48 0.46 0.44 0.41 0.39 0.37 0.36 0.36 0.35 0.33 0.32 0.31 0.31 0.30 0.29 0.30 0.30 0.30 0.30 0.30 0.31 0.30 0.29 0.27 0.25 0.25 0.24 0.24 0.26 0.28 0.30 0.32 0.32 0.31 0.31 0.32 0.33 0.34 0.35 0.35 0.36 0.36 0.36 0.36 0.37 0.39 0.40 0.40 0.41 0.42 0.42 0.43 0.43 0.45 0.47 0.48 0.50 0.51 0.52 0.54 0.57 0.58 0.58 0.59 0.60 0.61 0.62 0.61 0.65 0.68 0.70 0.73 0.72 0.74 0.76 0.85 0.97 1.04
0.55 0.54 0.51 0.48 0.46 0.44 0.43 0.41 0.39 0.37 0.36 0.35 0.34 0.33 0.32 0.32 0.31 0.30 0.29 0.29 0.30 0.30 0.30 0.30 0.29 0.29 0.29 0.29 0.29 0.28 0.27 0.25 0.25 0.24 0.24 0.25 0.27 0.30 0.30 0.31 0.29 0.30 0.31 0.32 0.33 0.35 0.36 0.37 0.37 0.37 0.37 0.38 0.40 0.41 0.43 0.44 0.44 0.44 0.44 0.44 0.46 0.47 0.48 0.52 0.52 0.53 0.54 0.55 0.58 0.60 0.61 0.63 0.63 0.64 0.63 0.64 0.68 0.73 0.75 0.77 0.78 0.75 0.74 0.84 0.91
0.53 0.50 0.47 0.44 0.42 0.41 0.39 0.37 0.36 0.35 0.35 0.33 0.32 0.30 0.29 0.29 0.29 0.29 0.27 0.27 0.27 0.28 0.28 0.28 0.28 0.28 0.27 0.27 0.28 0.28 0.28 0.25 0.25 0.24 0.24 0.24 0.26 0.29 0.29 0.29 0.29 0.29 0.29 0.31 0.33 0.34 0.35 0.36 0.36 0.36 0.37 0.39 0.41 0.42 0.44 0.45 0.45 0.45 0.46 0.46 0.48 0.48 0.48 0.51 0.54 0.55 0.55 0.57 0.58 0.60 0.61 0.62 0.63 0.65 0.65 0.65 0.69 0.75 0.75 0.70 0.65 0.71 0.70 0.72 0.85
0.49 0.46 0.43 0.41 0.39 0.38 0.37 0.36 0.35 0.34 0.33 0.30 0.29 0.29 0.29 0.29 0.28 0.28 0.25 0.24 0.25 0.26 0.27 0.27 0.27 0.28 0.28 0.26 0.27 0.28 0.28 0.26 0.25 0.24 0.24 0.24 0.26 0.28 0.28 0.28 0.28 0.28 0.29 0.30 0.32 0.33 0.35 0.36 0.36 0.36 0.37 0.39 0.42 0.44 0.45 0.47 0.46 0.47 0.48 0.47 0.47 0.46 0.48 0.53 0.55 0.56 0.58 0.58 0.59 0.60 0.60 0.60 0.62 0.65 0.68 0.70 0.73 0.79 0.74 0.63 0.65 0.70 0.65 0.69 0.72
0.46 0.42 0.40 0.39 0.39 0.38 0.37 0.35 0.33 0.32 0.31 0.30 0.30 0.28 0.28 0.28 0.28 0.28 0.26 0.25 0.25 0.25 0.25 0.25 0.26 0.27 0.28 0.28 0.27 0.27 0.28 0.27 0.25 0.25 0.25 0.25 0.25 0.28 0.27 0.27 0.27 0.28 0.28 0.29 0.31 0.32 0.33 0.35 0.36 0.36 0.38 0.40 0.42 0.44 0.47 0.49 0.49 0.50 0.50 0.49 0.48 0.47 0.51 0.54 0.54 0.52 0.54 0.58 0.62 0.64 0.63 0.63 0.64 0.67 0.70 0.74 0.77 0.79 0.78 0.73 0.74 0.69 0.64 0.69 0.73
0.43 0.41 0.40 0.40 0.39 0.38 0.36 0.34 0.33 0.31 0.30 0.30 0.30 0.29 0.29 0.29 0.28 0.27 0.26 0.25 0.24 0.25 0.25 0.25 0.25 0.26 0.28 0.29 0.28 0.27 0.27 0.28 0.26 0.25 0.25 0.25 0.25 0.27 0.28 0.26 0.26 0.28 0.28 0.29 0.30 0.31 0.33 0.34 0.35 0.35 0.37 0.40 0.42 0.45 0.47 0.50 0.51 0.53 0.53 0.51 0.49 0.48 0.54 0.56 0.57 0.57 0.58 0.63 0.67 0.69 0.67 0.66 0.68 0.70 0.72 0.76 0.80 0.82 0.81 0.80 0.78 0.74 0.70 0.72 0.75
0.41 0.40 0.40 0.39 0.37 0.36 0.35 0.34 0.32 0.32 0.31 0.30 0.29 0.29 0.29 0.29 0.29 0.28 0.27 0.26 0.25 0.25 0.25 0.25 0.26 0.26 0.28 0.28 0.29 0.28 0.27 0.27 0.27 0.26 0.26 0.26 0.26 0.26 0.28 0.27 0.28 0.29 0.28 0.29 0.30 0.30 0.31 0.33 0.35 0.35 0.37 0.39 0.42 0.45 0.47 0.50 0.53 0.55 0.56 0.54 0.54 0.55 0.58 0.58 0.59 0.61 0.63 0.66 0.69 0.71 0.72 0.72 0.73 0.73 0.74 0.76 0.77 0.81 0.83 0.86 0.85 0.84 0.81 0.78 0.76
0.41 0.39 0.38 0.37 0.36 0.35 0.34 0.34 0.34 0.34 0.34 0.32 0.30 0.29 0.29 0.29 0.29 0.29 0.28 0.26 0.25 0.25 0.25 0.25 0.25 0.26 0.27 0.28 0.28 0.29 0.29 0.27 0.27 0.28 0.28 0.28 0.27 0.27 0.27 0.28 0.29 0.30 0.27 0.29 0.29 0.30 0.31 0.34 0.34 0.35 0.37 0.39 0.42 0.45 0.48 0.51 0.53 0.56 0.57 0.58 0.58 0.58 0.59 0.62 0.63 0.61 0.63 0.67 0.68 0.68 0.71 0.72 0.73 0.74 0.76 0.77 0.77 0.79 0.83 0.87 0.89 0.91 0.92 0.93 0.89
0.39 0.38 0.37 0.35 0.34 0.33 0.33 0.33 0.33 0.34 0.33 0.33 0.31 0.29 0.29 0.28 0.28 0.29 0.28 0.27 0.25 0.24 0.24 0.25 0.25 0.25 0.26 0.27 0.28 0.28 0.29 0.30 0.27 0.27 0.28 0.28 0.28 0.28 0.28 0.28 0.29 0.31 0.29 0.28 0.29 0.31 0.33 0.34 0.35 0.35 0.36 0.38 0.41 0.45 0.48 0.51 0.54 0.55 0.57 0.58 0.58 0.59 0.61 0.63 0.64 0.64 0.61 0.62 0.64 0.65 0.69 0.72 0.70 0.71 0.77 0.79 0.79 0.80 0.82 0.87 0.91 0.93 0.95 0.97 0.99
0.38 0.36 0.35 0.34 0.33 0.32 0.32 0.33 0.33 0.34 0.34 0.33 0.31 0.30 0.30 0.28 0.28 0.27 0.27 0.26 0.25 0.24 0.24 0.24 0.24 0.23 0.24 0.25 0.25 0.26 0.28 0.29 0.29 0.26 0.27 0.27 0.28 0.28 0.28 0.28 0.28 0.29 0.30 0.30 0.31 0.32 0.32 0.33 0.34 0.35 0.36 0.38 0.40 0.44 0.47 0.51 0.54 0.56 0.58 0.59 0.59 0.59 0.61 0.62 0.62 0.63 0.63 0.62 0.61 0.62 0.66 0.71 0.73 0.72 0.74 0.80 0.83 0.84 0.84 0.87 0.90 0.94 0.95 0.95 0.97
0.36 0.34 0.33 0.33 0.32 0.32 0.33 0.33 0.33 0.33 0.34 0.34 0.31 0.29 0.29 0.29 0.27 0.28 0.27 0.26 0.25 0.24 0.24 0.24 0.23 0.23 0.25 0.25 0.25 0.26 0.26 0.27 0.28 0.28 0.27 0.27 0.28 0.28 0.28 0.28 0.28 0.28 0.28 0.30 0.31 0.32 0.32 0.33 0.34 0.35 0.36 0.37 0.39 0.41 0.44 0.49 0.53 0.56 0.58 0.59 0.60 0.59 0.59 0.60 0.61 0.62 0.61 0.61 0.61 0.63 0.66 0.69 0.72 0.75 0.80 0.81 0.84 0.88 0.87 0.85 0.88 0.90 0.93 0.94 0.95
0.34 0.33 0.32 0.32 0.31 0.31 0.31 0.31 0.32 0.31 0.32 0.30 0.29 0.29 0.29 0.28 0.27 0.27 0.28 0.27 0.26 0.25 0.23 0.23 0.23 0.23 0.24 0.26 0.26 0.26 0.25 0.25 0.25 0.27 0.27 0.27 0.28 0.27 0.27 0.28 0.27 0.28 0.29 0.29 0.30 0.31 0.30 0.31 0.32 0.34 0.35 0.37 0.38 0.39 0.41 0.46 0.52 0.55 0.57 0.59 0.60 0.59 0.59 0.59 0.60 0.60 0.60 0.61 0.62 0.63 0.65 0.69 0.73 0.75 0.79 0.84 0.85 0.82 0.82 0.82 0.82 0.83 0.85 0.86 0.87
0.33 0.32 0.31 0.31 0.32 0.32 0.31 0.31 0.29 0.30 0.31 0.30 0.29 0.29 0.30 0.30 0.29 0.27 0.27 0.27 0.27 0.26 0.24 0.23 0.23 0.24 0.24 0.25 0.26 0.25 0.24 0.23 0.23 0.24 0.25 0.25 0.25 0.26 0.26 0.26 0.26 0.27 0.27 0.29 0.31 0.30 0.30 0.31 0.32 0.33 0.34 0.36 0.37 0.39 0.40 0.45 0.48 0.53 0.56 0.58 0.58 0.58 0.58 0.58 0.58 0.59 0.60 0.61 0.62 0.64 0.67 0.69 0.74 0.75 0.73 0.75 0.79 0.84 0.86 0.82 0.80 0.79 0.81 0.83 0.82
0.32 0.31 0.31 0.30 0.31 0.33 0.32 0.29 0.31 0.29 0.30 0.31 0.30 0.29 0.28 0.29 0.27 0.25 0.26 0.26 0.27 0.27 0.26 0.24 0.24 0.25 0.24 0.24 0.25 0.24 0.22 0.22 0.22 0.22 0.23 0.23 0.24 0.24 0.24 0.24 0.23 0.26 0.26 0.28 0.30 0.31 0.30 0.30 0.31 0.32 0.33 0.33 0.35 0.36 0.38 0.41 0.45 0.50 0.53 0.56 0.58 0.58 0.58 0.58 0.59 0.59 0.60 0.62 0.62 0.64 0.67 0.69 0.69 0.71 0.73 0.71 0.71 0.77 0.83 0.83 0.83 0.83 0.83 0.83 0.82
0.33 0.32 0.32 0.32 0.31 0.31 0.27 0.30 0.31 0.28 0.27 0.27 0.29 0.31 0.31 0.30 0.30 0.29 0.26 0.27 0.25 0.26 0.28 0.26 0.26 0.29 0.28 0.24 0.23 0.22 0.22 0.21 0.21 0.24 0.24 0.24 0.24 0.23 0.22 0.22 0.23 0.25 0.26 0.28 0.28 0.29 0.28 0.28 0.27 0.28 0.29 0.29 0.32 0.33 0.34 0.37 0.41 0.46 0.50 0.53 0.55 0.56 0.56 0.56 0.54 0.54 0.56 0.58 0.59 0.62 0.64 0.66 0.67 0.69 0.71 0.71 0.71 0.69 0.73 0.74 0.78 0.79 0.82 0.83 0.79
0.32 0.31 0.32 0.31 0.29 0.30 0.29 0.29 0.29 0.29 0.29 0.27 0.26 0.24 0.24 0.25 0.28 0.32 0.28 0.27 0.27 0.26 0.25 0.24 0.24 0.27 0.30 0.29 0.26 0.23 0.21 0.22 0.24 0.24 0.24 0.24 0.24 0.23 0.23 0.23 0.24 0.25 0.26 0.27 0.29 0.27 0.26 0.25 0.26 0.26 0.27 0.28 0.30 0.31 0.32 0.34 0.36 0.40 0.44 0.49 0.52 0.53 0.54 0.54 0.53 0.53 0.53 0.54 0.57 0.60 0.62 0.64 0.65 0.67 0.68 0.68 0.71 0.72 0.71 0.70 0.70 0.74 0.73 0.73 0.72
0.32 0.31 0.31 0.30 0.28 0.29 0.29 0.28 0.28 0.29 0.28 0.28 0.29 0.28 0.27 0.26 0.29 0.27 0.28 0.28 0.27 0.27 0.27 0.27 0.27 0.27 0.26 0.27 0.29 0.29 0.26 0.25 0.24 0.24 0.24 0.24 0.23 0.23 0.23 0.23 0.23 0.24 0.25 0.26 0.26 0.25 0.25 0.24 0.24 0.25 0.27 0.27 0.29 0.30 0.32 0.33 0.34 0.36 0.39 0.43 0.47 0.50 0.51 0.52 0.53 0.53 0.52 0.51 0.53 0.58 0.61 0.62 0.63 0.65 0.66 0.67 0.68 0.70 0.71 0.71 0.71 0.73 0.72 0.72 0.71
0.32 0.30 0.31 0.31 0.28 0.30 0.29 0.28 0.27 0.27 0.27 0.28 0.28 0.28 0.29 0.30 0.28 0.27 0.28 0.27 0.28 0.28 0.28 0.27 0.27 0.27 0.27 0.27 0.27 0.29 0.28 0.26 0.25 0.24 0.24 0.24 0.24 0.24 0.24 0.24 0.24 0.24 0.25 0.27 0.25 0.23 0.25 0.25 0.25 0.25 0.26 0.27 0.28 0.30 0.31 0.32 0.33 0.34 0.35 0.38 0.41 0.45 0.47 0.48 0.51 0.52 0.52 0.52 0.51 0.54 0.59 0.61 0.62 0.63 0.65 0.66 0.66 0.67 0.68 0.69 0.68 0.69 0.71 0.72 0.72
0.33 0.31 0.31 0.29 0.25 0.29 0.29 0.27 0.27 0.27 0.26 0.25 0.26 0.28 0.28 0.28 0.29 0.30 0.29 0.30 0.29 0.27 0.27 0.27 0.27 0.27 0.27 0.28 0.28 0.27 0.26 0.27 0.26 0.25 0.25 0.24 0.24 0.25 0.26 0.26 0.26 0.26 0.25 0.24 0.23 0.22 0.23 0.25 0.25 0.25 0.25 0.26 0.27 0.28 0.30 0.31 0.31 0.33 0.33 0.35 0.37 0.41 0.43 0.47 0.50 0.50 0.51 0.51 0.51 0.52 0.56 0.59 0.61 0.62 0.63 0.64 0.64 0.63 0.65 0.65 0.67 0.67 0.68 0.68 0.69
0.35 0.32 0.31 0.28 0.27 0.25 0.28 0.27 0.27 0.28 0.28 0.29 0.29 0.28 0.27 0.27 0.26 0.28 0.30 0.31 0.30 0.30 0.30 0.29 0.27 0.26 0.27 0.27 0.28 0.27 0.28 0.27 0.27 0.26 0.25 0.25 0.25 0.26 0.27 0.28 0.29 0.28 0.25 0.23 0.23 0.22 0.22 0.23 0.24 0.24 0.25 0.25 0.26 0.27 0.29 0.30 0.30 0.31 0.32 0.33 0.34 0.37 0.39 0.42 0.44 0.45 0.47 0.49 0.50 0.51 0.54 0.57 0.58 0.59 0.60 0.61 0.63 0.63 0.63 0.63 0.64 0.63 0.63 0.64 0.65
0.33 0.30 0.29 0.28 0.29 0.27 0.28 0.28 0.28 0.28 0.28 0.27 0.26 0.26 0.28 0.26 0.27 0.27 0.26 0.25 0.25 0.26 0.30 0.31 0.28 0.26 0.27 0.27 0.26 0.27 0.27 0.28 0.27 0.27 0.26 0.25 0.26 0.27 0.30 0.29 0.26 0.25 0.24 0.22 0.23 0.22 0.22 0.22 0.23 0.23 0.24 0.24 0.24 0.25 0.26 0.28 0.29 0.29 0.31 0.31 0.31 0.34 0.35 0.37 0.40 0.42 0.43 0.44 0.46 0.49 0.52 0.53 0.55 0.58 0.59 0.59 0.60 0.60 0.60 0.61 0.62 0.62 0.61 0.61 0.62
0.30 0.27 0.25 0.26 0.29 0.28 0.28 0.28 0.28 0.28 0.28 0.29 0.29 0.30 0.29 0.28 0.28 0.28 0.27 0.26 0.27 0.27 0.28 0.27 0.28 0.28 0.29 0.27 0.26 0.26 0.26 0.26 0.27 0.27 0.27 0.26 0.27 0.28 0.28 0.25 0.25 0.25 0.24 0.22 0.22 0.23 0.23 0.22 0.23 0.23 0.23 0.24 0.24 0.23 0.23 0.26 0.28 0.29 0.31 0.30 0.30 0.31 0.32 0.33 0.35 0.38 0.40 0.41 0.43 0.46 0.49 0.50 0.53 0.55 0.57 0.58 0.59 0.59 0.60 0.60 0.61 0.61 0.62 0.61 0.61
0.28 0.25 0.25 0.25 0.29 0.29 0.29 0.29 0.29 0.30 0.29 0.30 0.28 0.28 0.28 0.28 0.28 0.28 0.28 0.29 0.27 0.24 0.27 0.27 0.28 0.34 0.32 0.31 0.26 0.26 0.26 0.27 0.27 0.28 0.27 0.28 0.28 0.29 0.28 0.27 0.26 0.26 0.25 0.23 0.22 0.24 0.23 0.23 0.24 0.23 0.23 0.23 0.23 0.23 0.22 0.23 0.27 0.28 0.29 0.29 0.30 0.30 0.30 0.31 0.32 0.35 0.36 0.37 0.39 0.42 0.44 0.47 0.49 0.51 0.53 0.54 0.56 0.57 0.58 0.59 0.60 0.60 0.60 0.61 0.61
0.28 0.28 0.27 0.28 0.29 0.30 0.29 0.30 0.29 0.28 0.26 0.27 0.28 0.29 0.29 0.29 0.29 0.28 0.28 0.27 0.26 0.24 0.28 0.29 0.24 0.28 0.28 0.29 0.30 0.28 0.28 0.30 0.30 0.31 0.30 0.30 0.30 0.29 0.28 0.27 0.28 0.26 0.26 0.25 0.24 0.24 0.24 0.24 0.25 0.24 0.23 0.23 0.23 0.23 0.21 0.21 0.25 0.27 0.28 0.28 0.29 0.29 0.29 0.30 0.30 0.32 0.33 0.34 0.36 0.38 0.39 0.42 0.46 0.48 0.49 0.50 0.52 0.54 0.56 0.57 0.58 0.58 0.58 0.58 0.59
0.29 0.30 0.30 0.29 0.31 0.30 0.30 0.29 0.29 0.26 0.27 0.27 0.29 0.28 0.27 0.27 0.27 0.27 0.27 0.28 0.27 0.28 0.27 0.27 0.28 0.28 0.28 0.27 0.29 0.29 0.31 0.30 0.27 0.26 0.26 0.27 0.28 0.29 0.28 0.27 0.28 0.27 0.28 0.27 0.26 0.24 0.25 0.24 0.25 0.25 0.24 0.23 0.22 0.22 0.21 0.21 0.23 0.25 0.27 0.27 0.27 0.28 0.27 0.28 0.28 0.30 0.30 0.31 0.33 0.36 0.37 0.38 0.41 0.43 0.45 0.46 0.47 0.50 0.52 0.53 0.55 0.56 0.56 0.56 0.57
0.30 0.29 0.29 0.28 0.28 0.30 0.31 0.30 0.29 0.28 0.27 0.28 0.29 0.29 0.27 0.25 0.24 0.25 0.26 0.28 0.28 0.27 0.27 0.27 0.27 0.29 0.29 0.28 0.28 0.25 0.26 0.27 0.28 0.27 0.27 0.26 0.28 0.29 0.28 0.28 0.27 0.28 0.28 0.28 0.27 0.25 0.25 0.25 0.25 0.25 0.24 0.24 0.23 0.22 0.22 0.21 0.22 0.23 0.25 0.26 0.26 0.26 0.27 0.27 0.27 0.28 0.29 0.30 0.31 0.32 0.34 0.35 0.37 0.39 0.41 0.43 0.44 0.45 0.46 0.48 0.51 0.53 0.55 0.56 0.57
0.30 0.30 0.28 0.27 0.29 0.29 0.29 0.30 0.29 0.29 0.29 0.28 0.28 0.27 0.27 0.26 0.26 0.26 0.28 0.28 0.27 0.26 0.26 0.27 0.28 0.30 0.30 0.26 0.24 0.26 0.24 0.28 0.29 0.29 0.28 0.28 0.28 0.28 0.28 0.29 0.29 0.28 0.29 0.29 0.28 0.27 0.26 0.25 0.26 0.25 0.24 0.24 0.24 0.23 0.22 0.21 0.21 0.22 0.21 0.23 0.24 0.25 0.26 0.27 0.27 0.27 0.28 0.28 0.28 0.29 0.31 0.32 0.33 0.35 0.36 0.38 0.42 0.43 0.44 0.45 0.47 0.49 0.50 0.52 0.54
0.30 0.30 0.29 0.28 0.28 0.29 0.30 0.28 0.29 0.29 0.29 0.29 0.28 0.28 0.27 0.26 0.25 0.25 0.26 0.27 0.27 0.26 0.27 0.28 0.28 0.30 0.30 0.26 0.27 0.27 0.26 0.28 0.30 0.28 0.30 0.29 0.29 0.28 0.29 0.30 0.30 0.30 0.30 0.30 0.30 0.29 0.28 0.26 0.26 0.26 0.26 0.26 0.25 0.23 0.23 0.21 0.21 0.21 0.21 0.21 0.21 0.22 0.23 0.24 0.25 0.26 0.26 0.27 0.27 0.27 0.28 0.29 0.30 0.32 0.33 0.35 0.37 0.39 0.40 0.41 0.42 0.45 0.47 0.47 0.49
0.30 0.31 0.30 0.29 0.29 0.28 0.29 0.29 0.29 0.30 0.30 0.29 0.29 0.28 0.27 0.27 0.27 0.26 0.26 0.26 0.27 0.27 0.27 0.27 0.27 0.29 0.30 0.29 0.28 0.28 0.27 0.31 0.31 0.31 0.31 0.29 0.28 0.29 0.30 0.31 0.30 0.30 0.31 0.32 0.32 0.31 0.30 0.28 0.27 0.26 0.27 0.27 0.27 0.26 0.24 0.23 0.22 0.22 0.21 0.21 0.20 0.20 0.20 0.21 0.22 0.24 0.24 0.26 0.27 0.27 0.27 0.27 0.27 0.28 0.29 0.31 0.33 0.35 0.36 0.38 0.39 0.40 0.43 0.45 0.45
0.30 0.30 0.30 0.30 0.30 0.30 0.29 0.29 0.29 0.30 0.30 0.30 0.29 0.29 0.28 0.28 0.27 0.27 0.27 0.28 0.27 0.27 0.26 0.27 0.28 0.27 0.28 0.30 0.29 0.30 0.32 0.33 0.31 0.30 0.28 0.28 0.30 0.29 0.30 0.31 0.31 0.30 0.31 0.31 0.31 0.31 0.30 0.30 0.29 0.28 0.28 0.29 0.30 0.31 0.29 0.27 0.26 0.24 0.23 0.22 0.21 0.20 0.19 0.19 0.20 0.21 0.21 0.23 0.26 0.26 0.26 0.26 0.26 0.26 0.27 0.28 0.30 0.31 0.32 0.34 0.35 0.36 0.39 0.41 0.43
0.32 0.30 0.29 0.29 0.29 0.29 0.29 0.29 0.29 0.30 0.30 0.29 0.28 0.27 0.27 0.27 0.27 0.27 0.27 0.27 0.28 0.27 0.28 0.28 0.28 0.28 0.28 0.28 0.29 0.29 0.29 0.29 0.29 0.29 0.29 0.30 0.29 0.30 0.31 0.31 0.31 0.31 0.31 0.31 0.32 0.31 0.31 0.30 0.30 0.29 0.28 0.29 0.30 0.31 0.31 0.31 0.30 0.29 0.28 0.26 0.24 0.21 0.20 0.20 0.20 0.21 0.21 0.20 0.22 0.23 0.24 0.26 0.25 0.25 0.25 0.27 0.27 0.28 0.29 0.31 0.32 0.33 0.34 0.37 0.39
0.32 0.31 0.30 0.30 0.29 0.28 0.29 0.30 0.29 0.29 0.29 0.29 0.28 0.27 0.28 0.28 0.27 0.27 0.27 0.27 0.27 0.27 0.28 0.29 0.30 0.30 0.29 0.29 0.29 0.28 0.28 0.29 0.29 0.29 0.29 0.28 0.29 0.30 0.31 0.31 0.31 0.31 0.32 0.32 0.32 0.32 0.31 0.30 0.30 0.30 0.29 0.29 0.30 0.31 0.33 0.33 0.32 0.31 0.31 0.30 0.29 0.26 0.24 0.22 0.22 0.21 0.20 0.20 0.20 0.20 0.20 0.21 0.23 0.24 0.24 0.26 0.26 0.26 0.26 0.28 0.29 0.30 0.32 0.32 0.34
0.32 0.31 0.31 0.30 0.30 0.30 0.29 0.29 0.30 0.29 0.29 0.28 0.28 0.28 0.28 0.28 0.29 0.28 0.28 0.27 0.28 0.28 0.28 0.28 0.29 0.30 0.30 0.30 0.30 0.30 0.29 0.28 0.28 0.28 0.27 0.28 0.29 0.29 0.29 0.31 0.32 0.32 0.32 0.33 0.33 0.33 0.33 0.33 0.32 0.31 0.31 0.31 0.31 0.31 0.32 0.33 0.33 0.33 0.32 0.32 0.31 0.30 0.28 0.26 0.25 0.23 0.21 0.21 0.21 0.20 0.19 0.17 0.18 0.19 0.22 0.23 0.24 0.25 0.25 0.25 0.26 0.27 0.28 0.29 0.31
0.32 0.32 0.31 0.31 0.31 0.30 0.29 0.28 0.28 0.28 0.28 0.28 0.28 0.28 0.28 0.28 0.28 0.28 0.28 0.28 0.28 0.27 0.27 0.27 0.28 0.29 0.30 0.30 0.31 0.31 0.31 0.30 0.29 0.27 0.26 0.26 0.28 0.30 0.31 0.31 0.30 0.32 0.33 0.33 0.33 0.33 0.33 0.33 0.33 0.33 0.32 0.32 0.32 0.32 0.32 0.33 0.33 0.34 0.33 0.33 0.32 0.32 0.31 0.30 0.28 0.27 0.25 0.23 0.22 0.21 0.20 0.18 0.17 0.17 0.17 0.19 0.20 0.22 0.23 0.23 0.24 0.25 0.26 0.26 0.27
0.31 0.31 0.31 0.30 0.30 0.30 0.29 0.28 0.27 0.27 0.27 0.26 0.27 0.26 0.27 0.27 0.27 0.28 0.28 0.28 0.28 0.28 0.29 0.29 0.29 0.30 0.30 0.30 0.31 0.31 0.31 0.31 0.30 0.28 0.28 0.28 0.29 0.30 0.30 0.31 0.30 0.29 0.30 0.31 0.33 0.33 0.33 0.34 0.34 0.34 0.34 0.34 0.34 0.34 0.33 0.33 0.33 0.34 0.34 0.33 0.32 0.32 0.32 0.32 0.31 0.30 0.29 0.27 0.25 0.23 0.21 0.19 0.18 0.18 0.16 0.16 0.16 0.18 0.21 0.23 0.22 0.23 0.24 0.25 0.25
0.29 0.28 0.28 0.28 0.27 0.27 0.28 0.28 0.27 0.27 0.27 0.27 0.27 0.27 0.27 0.27 0.27 0.27 0.28 0.28 0.29 0.29 0.29 0.30 0.30 0.30 0.30 0.30 0.30 0.31 0.32 0.32 0.32 0.30 0.29 0.29 0.29 0.30 0.31 0.31 0.31 0.31 0.31 0.32 0.33 0.34 0.34 0.34 0.35 0.35 0.35 0.35 0.35 0.35 0.35 0.35 0.34 0.34 0.34 0.34 0.33 0.33 0.33 0.33 0.33 0.32 0.31 0.30 0.28 0.27 0.25 0.22 0.20 0.18 0.18 0.17 0.17 0.15 0.16 0.19 0.21 0.21 0.22 0.22 0.23
0.26 0.25 0.24 0.24 0.24 0.25 0.26 0.26 0.26 0.26 0.27 0.27 0.27 0.28 0.28 0.28 0.28 0.28 0.28 0.28 0.28 0.29 0.30 0.30 0.30 0.31 0.31 0.32 0.32 0.31 0.31 0.32 0.33 0.32 0.31 0.30 0.30 0.30 0.31 0.31 0.30 0.30 0.31 0.31 0.32 0.33 0.34 0.34 0.35 0.36 0.36 0.36 0.36 0.36 0.36 0.36 0.36 0.36 0.35 0.35 0.35 0.34 0.34 0.33 0.33 0.33 0.33 0.33 0.31 0.30 0.29 0.26 0.23 0.21 0.19 0.18 0.18 0.17 0.15 0.15 0.18 0.19 0.20 0.21 0.21
Wind_Speed
10 10 11 11 11 12 12 12 13 13 13 13 13 14 14 14 14 15 15 15 16 16 17 18 18 19 20 21 22 23 23 24 24 25 25 26 26 27 27 28 28 28 29 29 29 30 30 31 31 31 31 31 31 31 31 31 31 31 31 31 31 31 31 32 33 32 31 31 31 30 29 28 28 27 27 27 27 28 28 29 30 31 31 31 32
10 10 11 11 11 11 12 12 13 13 13 13 13 13 14 14 15 15 15 16 16 17 18 18 19 20 21 22 23 24 24 25 25 26 26 27 27 27 27 28 28 28 28 29 29 30 30 31 31 31 31 32 32 32 32 32 32 32 32 32 32 32 32 32 33 33 33 32 32 32 32 31 29 28 28 28 28 28 28 29 30 31 32 31 31
11 11 11 11 11 12 12 12 13 13 13 13 13 13 14 14 15 15 16 16 17 17 18 19 20 21 22 23 24 24 25 26 26 26 27 27 27 27 27 27 28 28 28 29 29 30 30 31 31 31 32 32 32 32 32 32 33 33 33 33 33 33 33 33 34 34 34 33 33 33 33 33 32 30 29 29 29 29 29 29 30 31 32 33 32
11 11 11 12 12 12 12 13 13 13 13 13 13 14 14 14 15 15 16 16 17 18 19 20 21 22 23 23 24 25 25 26 26 26 27 27 27 27 27 27 27 28 28 28 29 29 30 30 31 31 32 32 33 33 33 33 34 34 34 34 34 34 34 35 35 35 35 35 34 33 34 35 35 33 32 30 30 30 30 29 29 30 32 33 33
11 11 12 12 12 12 12 13 13 13 13 13 13 14 14 14 15 15 16 17 18 19 20 21 22 22 23 23 24 24 25 26 26 26 26 26 26 26 26 26 26 27 27 28 28 28 29 29 30 31 31 32 32 33 34 35 35 35 35 35 35 35 35 36 37 37 37 36 35 35 35 35 35 35 35 34 32 31 31 30 30 30 31 32 33
12 12 12 12 12 12 12 13 13 13 13 13 13 14 14 14 15 16 16 17 18 19 20 21 22 22 22 23 23 24 24 24 25 25 25 26 26 25 26 26 26 26 26 27 28 28 29 29 29 30 30 31 32 33 34 35 35 36 36 37 36 37 37 37 38 38 38 38 37 36 36 35 35 35 35 35 35 33 32 31 31 31 31 32 32
12 12 12 12 12 12 12 12 12 13 13 13 13 13 14 14 15 16 16 17 18 19 20 20 21 21 21 21 22 22 23 24 24 25 25 25 25 25 25 26 26 26 27 27 28 28 29 29 30 30 31 31 32 33 34 35 35 36 37 37 38 38 39 39 39 39 39 39 39 38 37 36 36 36 35 35 36 36 35 33 32 32 32 32 32
12 12 12 12 12 12 12 12 12 12 12 12 13 13 14 14 15 15 16 17 18 18 19 19 19 19 20 20 21 22 22 23 24 25 25 25 25 25 25 26 26 26 27 27 28 28 29 29 30 31 31 32 32 33 34 35 36 36 37 38 39 40 40 40 40 40 40 40 40 39 39 38 37 37 36 35 36 37 36 35 34 32 32 32 32
12 12 12 12 12 12 12 12 12 12 12 12 12 13 13 13 14 14 15 16 16 17 17 17 18 18 19 19 20 21 22 23 24 25 25 25 25 25 25 25 26 26 27 27 28 28 29 29 30 31 32 33 34 35 35 36 36 37 38 39 40 41 41 41 41 41 41 41 41 40 40 39 38 37 37 36 36 36 36 37 36 34 33 33 33
12 12 12 12 12 12 12 12 12 12 12 12 12 12 12 12 13 14 14 14 15 15 16 16 17 17 18 18 19 20 22 23 25 25 25 25 25 25 25 25 26 26 27 28 28 28 29 30 31 32 33 34 35 36 36 37 38 39 40 40 40 41 41 42 41 41 42 42 41 41 41 40 39 39 39 38 38 37 37 37 38 36 35 34 34
12 12 12 12 12 12 12 12 11 11 11 11 11 11 11 12 12 13 13 13 14 15 15 16 16 16 17 18 19 20 22 23 25 25 26 26 26 25 25 26 26 27 28 28 28 29 30 31 32 33 33 35 36 36 37 39 40 40 41 41 41 41 41 42 42 42 42 43 43 42 42 42 41 40 40 39 39 39 38 38 38 37 36 35 34
12 11 11 11 11 11 11 11 10 10 10 10 10 10 10 11 11 11 12 13 14 14 14 15 15 16 17 18 19 20 22 24 25 26 26 26 26 25 25 26 27 27 28 29 29 30 31 32 32 33 34 36 37 37 39 40 41 41 41 42 42 42 42 42 43 43 43 44 44 44 43 44 43 42 41 40 40 40 39 39 39 38 37 37 35
11 11 10 10 11 11 10 9 9 9 9 9 9 9 9 9 10 11 11 12 13 13 14 14 15 16 17 18 19 20 22 24 25 26 26 26 26 26 25 26 27 28 28 29 30 31 31 33 33 34 36 38 38 39 41 42 41 41 42 42 42 42 42 43 43 43 44 44 45 45 44 44 44 43 42 42 41 41 40 40 40 39 39 38 37
10 10 9 9 9 10 9 8 7 7 7 7 7 7 8 8 9 10 11 11 12 12 13 14 15 16 17 18 18 20 22 24 25 26 26 26 27 26 26 26 27 28 29 30 30 31 32 33 34 35 37 38 39 40 42 42 42 42 41 41 42 42 43 43 43 43 43 44 45 46 45 45 46 45 44 43 43 43 42 41 41 40 39 39 39
10 9 9 8 8 7 7 7 6 6 6 6 6 7 7 8 9 10 10 11 12 12 13 14 15 16 17 17 18 19 22 24 25 26 27 27 27 27 26 27 27 28 29 30 31 32 33 34 34 36 37 38 39 41 42 42 42 42 41 41 41 42 42 42 42 43 43 44 45 46 46 45 46 46 45 45 45 44 43 43 43 42 41 39 39
9 9 8 7 7 6 6 6 6 5 5 6 6 7 7 8 8 9 10 11 12 13 14 15 15 16 17 17 18 19 21 24 25 26 27 28 27 27 27 27 27 28 29 30 30 31 32 33 34 36 37 38 39 41 41 42 41 41 41 41 40 40 40 41 42 43 43 44 45 45 46 45 46 46 46 46 46 46 45 44 43 42 42 40 38
9 8 7 7 6 6 6 5 5 5 5 6 6 6 7 7 8 9 10 11 12 13 14 14 15 16 17 18 18 19 21 24 25 26 27 28 27 26 27 27 27 28 29 29 30 31 32 33 34 36 37 38 40 41 41 41 40 39 39 39 39 38 38 38 40 41 41 43 44 44 45 45 45 45 45 46 47 47 46 45 43 41 41 40 38
8 8 7 7 6 6 6 6 5 5 5 5 6 6 6 7 8 9 10 11 12 13 13 14 15 16 17 18 19 20 21 23 25 26 27 28 27 26 27 27 26 27 28 29 30 31 32 33 35 37 38 39 40 41 41 40 39 38 37 37 37 36 35 36 36 37 37 38 39 40 41 42 42 42 42 43 44 45 46 46 44 42 41 40 39
8 8 7 7 6 6 6 6 6 5 5 5 5 6 6 7 8 9 10 11 12 13 14 14 15 16 17 18 19 20 21 23 25 26 26 27 27 26 26 26 26 27 29 29 30 31 32 33 35 37 38 39 40 41 40 39 37 36 36 36 35 34 33 33 32 32 31 32 32 34 36 37 37 37 38 39 40 42 43 44 43 42 41 40 39
9 8 7 7 7 7 7 6 5 5 4 5 5 6 7 8 9 10 11 11 12 13 14 15 16 17 17 18 19 21 22 23 24 25 26 27 27 27 27 27 27 28 29 30 30 32 33 34 35 38 39 39 40 40 40 38 36 34 34 33 32 31 30 29 29 28 27 27 28 29 30 31 32 32 33 34 35 37 39 41 41 42 42 41 40
9 8 8 7 7 7 6 5 5 4 4 5 6 6 7 8 9 10 11 12 13 14 14 15 16 17 18 19 19 20 22 22 24 25 26 27 27 27 27 27 28 28 29 30 31 32 34 34 36 38 39 39 39 39 39 38 34 32 31 31 29 29 27 26 26 25 23 22 22 23 23 24 26 27 28 29 31 33 35 37 38 39 41 41 40
9 8 8 8 7 6 6 5 4 4 5 6 6 7 8 8 9 10 11 12 13 14 15 15 16 17 18 19 20 20 21 22 23 25 26 26 27 27 27 28 28 28 29 30 31 32 34 35 36 38 39 39 39 39 38 37 33 30 30 29 28 26 24 23 23 22 20 19 18 17 17 18 19 21 24 25 27 29 31 32 34 36 37 38 38
9 8 8 8 7 6 5 5 5 5 6 6 7 7 8 9 10 10 11 12 13 14 15 16 16 17 18 19 20 21 21 22 23 25 25 25 26 27 27 28 29 29 29 30 31 32 34 35 36 38 39 39 38 38 37 35 31 29 29 28 26 24 22 21 21 20 19 17 15 14 14 14 14 16 18 21 23 25 27 29 30 31 33 35 36
9 9 8 7 6 5 5 5 5 6 6 7 7 8 8 9 10 11 12 13 13 14 15 16 16 17 18 19 20 21 21 22 23 24 25 25 25 27 27 28 29 29 29 29 30 32 34 35 36 37 38 38 38 36 35 33 30 28 28 27 25 23 21 21 21 20 19 16 13 12 13 13 12 13 14 16 18 20 24 25 26 27 28 30 31
10 9 8 7 6 5 5 5 6 6 7 7 7 8 9 10 11 11 12 13 13 14 15 16 16 17 17 18 19 20 21 22 22 23 24 25 25 26 27 28 29 29 29 29 30 32 34 35 35 36 38 38 37 36 34 31 28 27 27 27 25 22 20 20 20 20 19 16 13 11 11 11 10 10 11 12 14 16 19 22 24 24 25 26 27
10 9 8 7 6 6 6 6 6 6 7 7 8 8 9 10 11 11 12 12 13 14 15 15 16 16 17 18 18 19 20 21 22 22 23 24 25 26 27 28 29 29 29 29 30 31 32 33 34 35 36 37 37 36 34 30 27 26 27 26 25 22 20 20 21 21 19 17 15 13 12 11 10 9 9 9 9 11 15 19 21 22 23 23 24
10 9 8 7 7 6 6 6 6 6 7 7 8 9 9 10 11 11 12 12 13 13 14 15 15 16 17 18 18 19 19 20 21 21 22 23 24 25 26 27 28 29 29 29 29 30 31 32 33 34 35 36 36 35 33 30 27 25 25 25 25 23 20 20 21 21 20 17 15 14 12 11 10 8 8 7 8 8 10 14 18 19 20 21 22
10 9 8 7 7 7 7 7 7 7 7 8 8 9 9 10 10 11 11 12 12 13 13 14 15 15 16 17 18 18 19 19 20 21 22 23 24 25 26 27 27 28 29 29 29 29 30 31 32 33 34 35 35 35 33 30 27 25 24 24 24 23 22 20 20 21 21 18 16 14 13 13 11 9 7 6 7 7 8 9 12 15 17 18 18
10 9 9 8 8 7 7 7 7 7 7 7 8 8 9 9 10 10 11 11 12 12 13 13 14 15 15 17 17 18 18 18 19 20 22 23 24 24 25 26 27 28 29 29 28 28 29 30 31 33 34 35 35 35 34 31 27 25 24 24 24 24 23 21 20 20 21 19 17 15 14 14 14 12 9 6 4 5 7 7 8 10 12 13 14
10 10 9 8 8 8 7 7 7 7 7 7 7 7 8 9 9 10 10 11 11 12 12 13 14 14 15 15 16 17 17 18 19 20 21 22 23 24 25 26 27 28 29 29 28 27 28 29 31 32 33 34 35 35 34 32 28 25 24 25 24 23 24 23 21 20 20 19 18 16 15 15 15 14 11 8 6 3 3 6 7 8 9 10 10
11 10 9 9 8 8 8 7 7 7 7 7 7 7 7 8 9 9 10 10 11 11 12 12 13 14 14 15 15 16 16 18 19 20 21 22 23 24 25 26 27 28 28 28 27 27 28 29 30 31 32 33 34 35 35 33 30 26 24 24 24 23 23 24 23 21 20 19 18 17 16 15 15 15 14 11 9 6 3 1 4 6 6 7 8
10 10 9 9 9 8 8 7 7 7 7 7 7 7 7 8 8 9 10 10 10 11 11 12 13 13 14 14 15 15 16 17 19 20 21 22 22 23 24 25 26 27 27 27 26 27 27 28 29 30 31 32 33 34 34 34 32 28 25 24 24 23 22 22 23 22 21 20 18 17 16 16 15 14 14 15 12 9 7 5 2 2 4 5 6
10 10 9 9 9 8 8 7 7 7 6 7 7 7 8 8 8 8 9 10 10 11 11 12 12 12 13 13 14 15 16 17 18 19 20 21 22 23 24 25 26 26 27 26 26 26 27 28 28 29 30 31 32 33 34 34 33 30 27 25 24 23 23 22 22 22 22 21 19 17 16 16 15 13 13 14 15 13 10 8 6 3 1 2 3
11 10 9 9 9 8 8 7 7 7 6 7 7 7 7 8 8 8 9 9 9 10 10 11 12 12 12 13 13 14 16 17 17 18 20 21 22 23 23 24 24 25 25 25 26 26 26 27 28 28 29 30 31 31 32 33 33 32 29 26 24 23 23 22 22 22 22 21 20 18 16 16 16 15 13 13 14 15 13 11 9 7 5 3 2
11 10 9 9 8 8 8 7 7 7 7 7 7 7 7 7 8 8 9 9 9 9 9 10 10 11 12 12 13 14 15 16 17 18 19 20 21 22 22 23 23 24 24 25 25 25 26 27 27 28 28 29 30 30 31 32 32 32 31 28 25 23 23 23 23 22 22 22 21 19 17 16 15 15 14 13 13 15 15 14 12 10 7 5 4
11 10 10 9 8 8 7 7 7 7 7 7 7 7 7 7 8 8 8 8 8 8 9 9 9 10 11 12 13 14 14 15 16 17 18 19 21 21 21 22 23 23 24 25 25 25 25 26 27 27 28 28 29 29 30 30 31 31 31 31 28 24 23 22 23 22 22 21 21 20 18 16 15 15 14 14 13 14 15 14 13 12 9 7 6
11 10 9 9 8 7 7 7 7 7 7 7 7 7 7 7 7 8 7 8 8 8 8 9 9 10 10 12 13 13 14 15 15 16 18 19 20 20 20 21 22 23 23 24 24 24 25 25 26 26 27 27 28 28 29 29 29 30 30 31 30 28 25 23 22 22 22 21 21 21 20 18 16 15 15 14 13 13 14 14 13 12 11 10 8
11 10 9 9 8 8 7 8 7 7 7 7 7 7 7 7 7 7 7 7 7 8 8 8 9 10 10 11 12 13 14 14 15 16 17 18 19 19 20 20 21 22 23 23 24 24 24 24 25 26 26 27 27 27 28 28 28 28 29 29 29 29 28 26 23 22 21 21 20 20 20 19 17 16 15 14 13 13 13 13 13 12 12 11 10
11 10 9 8 8 8 8 8 8 7 7 7 7 7 7 7 7 7 7 7 7 7 8 8 9 9 10 11 12 13 14 14 15 16 17 17 18 18 19 20 20 21 22 22 23 23 23 24 24 25 25 26 26 27 27 27 27 27 28 28 28 29 29 28 26 23 21 21 20 19 19 19 18 16 15 14 13 12 12 12 12 12 12 11 10
11 10 10 9 9 8 8 8 8 8 8 7 7 7 7 7 7 7 7 7 7 7 8 8 9 9 10 11 12 13 14 14 14 15 16 17 17 18 19 19 20 20 21 21 22 23 23 23 23 24 25 25 26 26 26 26 26 26 27 27 27 28 28 28 28 26 23 22 21 20 19 18 18 17 16 15 14 13 12 11 11 11 11 10 10
11 11 10 10 9 8 8 8 8 8 8 7 7 7 7 7 7 7 7 7 7 7 8 8 9 9 10 10 12 13 13 13 14 15 15 16 17 17 18 18 19 19 20 20 21 22 22 23 23 23 24 25 25 25 25 26 26 26 26 26 26 27 27 27 27 27 26 24 22 21 19 18 17 17 16 15 14 13 12 11 10 10 9 8 8
12 11 10 10 10 9 9 9 8 8 8 8 8 8 7 7 7 7 7 7 8 8 8 9 9 9 10 10 11 12 13 13 13 14 15 16 16 17 17 18 18 19 19 19 20 21 21 22 22 22 23 24 24 24 25 25 25 25 25 25 25 26 26 26 26 26 26 26 24 23 21 19 18 17 16 15 14 14 13 12 11 10 9 8 7
12 11 11 10 10 10 9 9 9 9 8 8 8 8 8 7 7 7 7 8 8 8 9 9 10 10 10 11 12 12 13 13 13 14 14 15 16 16 17 17 17 18 18 18 19 20 20 21 21 22 22 23 23 24 24 24 25 25 25 25 25 25 25 25 25 25 25 25 25 24 23 22 19 17 16 15 14 14 13 13 12 10 9 8 8
12 11 11 11 10 10 10 9 9 9 9 9 9 8 8 8 8 8 8 8 9 9 9 10 10 11 11 11 12 12 13 13 13 14 14 15 15 16 16 16 17 17 18 18 18 19 19 20 20 21 21 22 22 23 23 24 24 24 24 24 24 24 24 24 24 24 24 24 23 23 23 23 22 20 18 16 15 14 13 13 12 11 10 9 8
12 12 11 11 11 11 10 10 10 10 10 9 9 9 9 9 9 9 9 9 9 10 10 11 11 11 12 12 12 13 13 14 14 14 14 15 15 15 15 16 17 17 17 17 17 18 18 19 19 19 20 21 21 22 22 22 23 23 23 23 24 24 24 23 23 23 23 23 22 22 22 22 22 21 20 19 17 15 14 13 12 11 10 9 8
13 13 12 11 11 11 11 11 11 11 10 10 10 10 10 10 10 10 10 10 11 11 11 12 12 12 13 13 13 13 14 14 14 15 15 15 15 15 15 16 16 16 17 17 17 17 17 17 18 18 19 20 20 21 21 21 21 22 22 22 23 23 23 23 23 23 22 22 21 21 21 21 20 20 20 19 18 17 16 15 13 12 11 9 8
14 13 13 12 12 12 11 11 11 11 11 11 11 11 11 11 11 11 11 12 12 13 13 13 13 14 14 14 14 14 14 15 15 15 15 15 15 15 15 16 16 16 16 17 17 17 17 17 17 18 18 18 19 20 20 20 20 21 21 21 21 22 22 22 22 22 22 21 21 20 20 20 19 19 19 19 18 17 17 16 15 14 13 11 9
14 14 13 13 12 12 12 12 12 12 12 12 12 12 12 12 13 13 13 13 14 14 14 14 15 15 15 15 15 15 15 15 15 16 16 16 16 16 16 16 16 16 16 16 17 17 17 17 17 17 17 18 18 18 19 19 19 20 20 20 21 21 21 21 21 21 21 21 21 20 20 19 19 18 18 18 17 17 16 15 15 15 14 13 12
15 14 14 14 14 13 13 13 13 13 13 14 14 14 14 14 14 14 15 15 15 15 16 16 16 16 16 16 16 16 16 16 16 16 16 16 16 16 16 16 17 17 17 17 17 17 17 17 17 17 17 17 17 18 18 18 18 18 19 20 20 21 20 20 20 20 20 20 20 20 20 19 18 18 17 17 17 16 15 14 14 14 13 13 12
16 15 15 15 15 15 15 15 15 15 15 15 15 15 15 16 16 16 16 17 17 17 17 17 18 18 18 18 18 18 18 17 17 17 17 17 17 16 16 16 17 17 17 17 17 17 17 17 17 17 17 17 17 17 17 18 18 18 18 19 19 20 20 20 20 20 20 19 19 19 19 19 18 18 17 17 16 16 15 14 14 13 13 12 12
16 16 16 16 16 16 16 16 16 16 16 16 16 17 17 17 17 18 18 18 18 18 19 19 19 19 19 19 19 19 19 19 19 18 18 18 17 17 17 17 17 17 17 17 17 17 17 17 17 17 17 17 17 17 17 17 17 17 18 18 19 19 19 19 19 19 19 19 19 18 18 18 18 18 17 17 16 15 15 14 13 13 13 12 12
Wind_Direction
268 269 270 269 269 269 269 269 268 268 270 271 272 274 276 279 281 285 289 292 296 298 300 303 304 306 307 308 309 310 310 309 308 307 307 307 306 305 305 304 303 302 301 299 298 297 296 295 294 293 292 291 290 289 288 287 287 287 286 285 284 283 282 281 280 279 278 277 276 277 277 277 275 272 270 269 267 264 261 257 252 250 249 249 247
271 271 269 269 271 271 271 270 270 270 272 275 277 278 279 281 283 285 288 292 296 299 301 303 305 306 307 308 309 310 310 310 309 309 308 308 308 307 306 306 305 304 303 301 300 298 297 296 295 294 293 292 291 289 288 287 287 286 286 285 284 282 282 281 280 279 278 276 275 274 274 274 274 272 270 268 266 264 262 258 254 251 249 249 249
273 272 270 270 273 274 274 274 272 273 274 276 279 280 281 282 284 285 288 292 296 299 302 303 305 306 307 308 309 310 311 311 311 311 310 310 310 309 308 308 307 305 304 302 301 299 298 297 296 294 293 292 291 290 289 288 287 286 285 284 283 282 282 280 279 278 277 276 275 274 272 272 271 271 270 269 266 264 262 260 257 253 250 248 248
273 272 271 273 276 277 277 276 275 275 275 277 278 279 281 282 285 287 290 294 297 299 302 304 305 306 308 309 310 311 312 313 313 313 312 312 311 311 310 309 308 306 305 303 302 301 300 298 297 296 294 293 292 290 289 289 288 286 285 284 283 282 281 280 279 278 277 276 274 273 272 271 269 268 268 268 267 265 262 260 258 255 252 250 248
272 272 273 276 277 279 279 278 277 277 276 278 278 280 282 283 286 289 292 295 298 300 302 304 305 307 309 311 312 313 314 315 315 315 315 314 314 313 312 311 309 308 306 305 304 303 302 301 299 298 296 295 293 292 291 290 289 287 286 284 282 281 280 279 279 278 276 275 274 272 271 271 269 267 265 265 265 265 261 259 258 257 255 252 249
271 272 275 278 279 281 280 279 278 277 277 278 279 281 283 285 287 291 294 296 299 301 302 304 306 309 311 313 314 316 317 318 318 318 318 317 316 315 314 313 311 309 308 307 306 305 304 302 301 300 299 297 296 294 293 292 290 289 287 285 283 282 280 279 278 277 276 275 274 272 270 269 268 267 265 263 262 262 262 260 258 257 256 253 251
270 273 277 280 281 281 280 279 279 279 279 279 281 282 284 286 289 292 295 297 300 302 304 307 309 311 313 315 317 319 320 321 321 320 319 318 316 316 315 315 313 311 310 309 308 307 305 304 303 302 301 299 298 296 295 294 292 291 289 287 285 283 281 280 278 276 275 274 273 272 270 268 267 266 265 264 261 260 260 261 259 256 254 253 252
270 274 277 279 280 279 278 279 279 280 280 280 282 283 285 287 290 293 297 299 302 305 308 310 312 314 316 318 320 322 322 323 323 322 321 319 317 317 317 316 315 313 311 310 310 308 307 306 304 303 302 301 300 299 297 296 294 292 291 289 287 285 283 281 278 276 274 272 271 271 269 267 265 264 264 263 261 260 258 258 258 256 254 254 253
270 273 276 278 278 278 277 278 279 279 280 281 282 284 287 290 293 296 300 302 305 309 311 313 315 317 319 320 321 323 323 323 324 323 322 320 319 318 317 316 315 314 313 312 311 310 309 307 305 305 304 303 302 301 299 298 296 294 292 290 288 286 284 281 279 276 274 271 270 269 268 266 264 263 262 261 260 260 259 257 256 255 255 255 253
270 273 275 276 277 278 278 277 278 278 279 281 283 286 289 292 296 299 302 306 309 312 314 316 317 319 320 321 322 323 323 324 325 325 324 322 320 320 318 317 317 316 315 314 313 312 311 309 308 307 306 305 304 303 301 300 298 296 293 291 289 287 284 281 279 277 274 271 269 267 265 264 263 262 261 260 260 260 259 257 256 255 255 254 252
269 272 274 276 277 277 277 277 276 277 279 282 284 286 290 294 298 301 305 309 312 314 315 317 318 320 320 322 323 323 324 326 326 326 326 324 322 321 320 320 319 318 317 316 315 314 313 312 310 309 307 306 305 303 303 302 300 297 295 293 290 287 284 281 278 277 274 272 269 267 264 263 262 261 260 260 259 258 257 257 256 254 252 251 251
268 271 273 274 275 276 276 275 274 276 279 282 285 288 292 296 300 304 308 311 313 315 317 318 319 320 321 322 324 325 326 327 328 327 328 326 325 324 323 322 321 320 319 318 317 317 316 315 313 311 310 309 307 304 304 304 302 299 297 294 291 288 285 281 278 276 274 272 270 267 265 263 262 260 259 258 258 257 256 255 255 253 251 249 250
266 269 271 273 274 274 272 271 272 277 280 283 286 290 294 298 302 306 310 312 314 316 318 320 320 321 321 322 324 326 328 329 330 330 330 329 328 327 325 323 323 322 322 321 320 319 318 318 316 315 314 313 310 308 307 305 303 301 298 295 293 290 287 283 279 275 273 270 268 266 265 263 261 259 258 257 256 256 255 254 254 253 251 249 250
264 267 270 273 274 272 268 264 266 273 278 284 291 295 299 303 306 309 311 313 315 318 321 322 322 322 323 322 324 328 331 332 332 333 332 331 330 329 327 325 325 325 324 324 323 322 321 320 319 318 317 316 313 312 310 308 305 303 300 297 295 292 289 285 280 276 272 269 267 265 264 263 261 259 257 256 255 254 253 253 252 252 251 251 250
259 262 266 270 272 270 263 255 259 270 280 289 297 303 306 309 311 313 314 316 319 320 322 323 323 325 325 325 326 329 333 335 335 335 335 333 332 331 330 328 328 327 327 327 326 325 324 323 321 320 320 318 317 315 313 310 307 305 301 299 296 294 290 286 281 277 273 270 267 265 263 262 261 259 257 255 254 253 252 252 251 251 251 251 248
254 257 261 264 264 261 255 250 258 274 286 295 303 308 310 312 315 317 319 321 322 323 323 324 326 327 328 329 328 330 334 337 337 337 337 336 334 334 333 331 330 330 330 330 328 327 326 325 324 323 323 322 320 319 317 313 310 307 304 301 298 296 292 288 284 280 275 271 268 265 263 261 260 258 256 253 252 251 251 250 250 249 248 248 247
250 252 253 254 253 250 249 251 260 273 285 295 304 309 312 316 319 322 323 325 325 325 326 327 328 330 331 332 331 331 335 338 339 339 340 339 337 337 336 334 333 333 332 332 331 330 330 329 328 327 326 326 325 323 320 317 314 310 307 304 301 298 294 291 287 282 277 272 268 266 263 261 260 257 255 253 250 249 248 247 247 246 245 245 245
245 244 243 242 241 242 247 252 260 271 283 295 304 309 314 319 321 323 325 327 328 329 329 330 331 332 333 335 335 333 335 339 341 341 342 342 340 339 338 336 335 335 335 334 334 334 333 333 333 332 331 330 329 327 325 322 318 315 313 310 306 303 299 295 291 286 281 276 271 267 264 262 260 257 254 252 249 246 244 243 243 243 243 242 242
238 235 233 233 236 240 246 251 259 271 283 293 302 309 315 319 322 324 326 327 330 331 332 333 334 334 334 336 337 337 337 339 342 343 343 344 343 341 340 339 337 337 337 337 337 337 337 336 336 336 335 334 333 331 329 326 323 321 319 316 313 310 306 302 298 292 286 281 276 272 268 263 260 257 254 251 247 244 242 241 240 239 240 241 241
229 226 226 230 235 240 244 250 259 270 281 290 299 306 312 318 323 325 327 329 331 333 334 334 335 336 336 336 337 339 339 340 342 344 344 345 345 343 342 341 339 339 340 339 339 339 339 339 339 339 338 337 336 335 333 332 329 325 324 323 319 316 313 309 306 301 294 287 283 278 271 265 260 256 253 249 246 243 241 240 238 237 238 239 240
220 221 223 228 233 237 240 247 255 265 279 290 298 306 312 317 321 325 328 331 333 334 335 335 335 337 338 338 338 339 341 341 342 344 344 345 346 345 344 344 342 341 342 342 341 342 342 341 341 342 341 340 340 339 337 336 333 330 329 329 326 322 320 317 314 309 302 295 289 284 276 269 263 257 250 246 244 242 240 239 237 236 236 237 238
215 217 221 225 229 232 236 245 255 268 282 291 299 306 312 317 321 324 327 330 333 335 336 336 335 336 338 339 339 339 340 342 342 343 343 344 346 346 346 346 345 344 344 344 344 344 344 344 344 344 344 344 343 342 341 340 338 335 334 334 333 331 329 327 324 320 313 304 296 291 286 277 269 262 253 247 243 240 237 236 236 235 235 235 236
212 215 218 221 224 229 237 249 264 275 285 292 299 305 311 316 322 325 326 327 330 334 336 336 336 336 337 339 340 340 340 341 343 344 344 344 345 347 347 347 347 346 345 345 346 346 346 346 347 346 346 345 345 344 345 344 343 342 341 340 338 337 337 337 335 331 326 315 303 297 293 286 278 268 258 251 246 240 235 233 233 234 234 234 236
211 213 216 217 222 232 244 259 271 279 287 293 299 305 311 315 321 324 325 326 329 332 335 336 336 337 338 338 340 341 341 341 343 345 346 345 346 348 348 348 349 348 347 346 346 346 347 348 348 348 348 347 346 346 348 349 348 348 348 347 344 342 342 345 346 344 340 332 317 307 303 296 287 276 263 255 247 239 233 230 230 232 232 233 234
210 211 213 217 226 238 251 265 274 281 288 293 298 306 312 315 318 320 323 327 330 332 334 336 337 338 339 339 340 341 343 343 344 346 347 348 348 349 350 350 350 350 349 348 348 347 347 348 349 349 350 350 350 350 351 352 352 353 355 355 354 351 351 353 355 355 353 348 338 328 321 312 301 286 271 259 249 239 232 228 228 229 231 231 233
208 210 214 220 230 242 256 269 276 282 289 295 301 307 311 314 317 320 322 326 330 333 334 336 337 339 339 340 340 341 343 345 346 348 349 350 350 351 352 352 352 351 351 350 350 350 350 351 352 352 353 354 354 354 355 355 355 356 360 2 3 2 1 1 1 1 0 359 355 348 339 331 319 300 281 268 257 246 237 230 228 228 229 231 233
209 213 218 225 236 249 260 269 276 282 288 295 301 307 311 314 317 320 323 326 329 332 334 335 338 339 340 341 341 342 344 347 349 350 351 352 352 352 353 353 354 353 353 353 353 353 353 354 355 355 356 357 358 358 358 358 358 358 2 5 7 7 6 5 5 6 5 3 2 360 354 349 341 323 297 275 261 253 243 233 229 230 231 232 233
211 216 222 230 242 252 260 267 274 281 288 295 301 306 310 314 319 323 326 327 328 330 332 335 337 339 340 342 342 343 345 348 351 352 353 353 353 353 354 355 355 356 356 356 355 355 356 357 358 358 360 1 1 1 1 2 1 1 2 6 9 10 8 6 7 10 10 8 8 9 9 6 1 352 334 300 265 251 243 235 229 229 229 230 230
214 219 226 235 244 251 258 265 273 280 288 297 303 308 312 315 318 322 327 330 331 332 333 335 337 338 339 343 345 346 347 350 352 352 352 353 354 354 355 356 356 357 357 357 357 357 359 360 1 1 2 3 4 4 5 5 4 4 5 7 9 11 10 8 8 9 10 12 13 15 17 17 13 9 5 357 320 258 239 232 226 223 222 222 225
216 222 229 237 243 249 256 263 271 280 288 294 301 309 317 321 322 323 327 330 332 333 334 336 339 340 340 343 346 349 350 351 352 352 353 353 354 354 355 356 357 358 358 358 359 359 1 2 3 4 5 5 6 7 8 8 7 7 7 8 9 11 12 12 11 9 9 13 17 19 21 23 22 19 17 16 14 353 252 229 223 221 220 218 219
218 224 232 238 242 248 255 262 271 281 287 292 296 301 309 318 324 326 328 329 329 331 333 335 337 340 342 343 347 350 351 353 353 353 354 354 355 355 356 357 358 358 359 360 1 1 3 4 5 6 6 7 8 9 10 11 10 10 10 9 9 10 12 15 16 14 12 15 20 24 24 21 21 25 27 25 24 26 27 221 213 216 218 218 218
222 227 233 236 238 246 255 261 270 278 284 291 297 300 302 308 315 320 325 328 328 329 332 333 335 338 341 344 347 350 352 353 354 354 354 355 356 357 358 359 359 359 360 1 2 3 4 5 6 7 8 9 10 11 12 13 13 13 13 12 11 10 11 14 18 19 19 18 20 25 26 21 20 27 32 31 31 34 37 40 58 195 207 211 212
226 228 231 232 236 246 255 260 266 274 281 287 295 300 304 307 311 313 318 323 326 328 331 334 336 338 341 344 347 349 350 352 353 354 355 356 356 358 359 360 360 360 1 3 4 4 5 6 7 8 9 10 11 12 13 15 16 15 15 15 14 13 12 13 16 19 21 21 21 22 25 24 23 25 28 31 34 37 40 42 46 59 107 173 196
226 226 228 230 236 245 252 257 264 272 280 287 293 299 304 310 314 315 315 319 323 326 329 333 337 341 343 344 346 348 350 351 353 354 355 356 357 358 360 360 359 0 2 4 5 6 6 7 8 9 10 10 11 12 14 16 17 17 17 16 16 16 15 15 16 17 18 20 21 21 22 24 26 26 27 30 33 36 40 43 47 56 73 92 116
223 224 227 232 238 244 249 255 264 271 278 286 292 297 302 306 311 315 319 322 324 326 329 332 336 342 346 348 348 349 350 352 353 355 356 356 357 359 360 1 2 3 5 6 6 7 7 8 9 10 10 11 12 13 14 16 17 19 19 19 17 16 17 18 19 17 16 18 21 22 23 26 28 30 33 35 35 36 41 43 44 48 61 76 86
220 222 226 232 239 244 247 254 263 270 278 285 290 296 301 303 306 311 316 320 324 328 331 334 335 338 344 349 350 350 351 352 353 355 356 357 358 359 1 3 4 5 6 7 7 7 8 9 10 10 11 12 13 14 15 16 17 18 20 21 20 18 17 18 20 20 17 17 19 22 25 28 29 30 33 36 38 40 44 46 47 48 52 58 66
219 221 223 229 237 243 247 254 262 270 277 284 288 294 299 302 304 308 312 317 323 326 330 335 337 338 342 346 349 351 352 352 352 353 354 355 357 360 2 3 4 5 6 7 7 8 9 10 10 11 11 12 13 14 15 16 17 18 19 21 21 21 19 18 20 21 20 19 19 20 23 27 28 28 27 29 32 36 41 46 49 51 53 56 60
218 220 222 227 235 242 248 255 261 266 272 278 285 291 296 300 302 305 308 314 319 322 326 333 337 340 343 346 348 350 351 350 350 352 353 355 357 359 1 2 4 4 5 6 7 8 9 10 10 11 12 12 13 14 15 16 18 18 19 20 21 22 22 21 20 21 21 21 21 21 21 23 25 26 26 27 28 29 32 36 40 43 47 52 56
218 221 223 227 236 245 250 254 257 262 267 274 281 287 292 297 300 300 303 308 313 318 324 329 333 337 342 345 347 348 349 350 351 352 353 355 357 358 360 1 3 4 4 5 6 7 8 9 10 11 12 13 13 14 15 16 17 18 19 20 21 22 23 23 23 22 22 23 23 22 21 20 21 22 24 26 27 27 27 29 31 35 40 46 49
219 222 224 229 239 247 251 254 256 260 265 271 279 283 288 294 297 297 298 303 308 314 320 324 328 333 338 342 344 346 347 348 350 351 352 353 354 356 358 360 1 2 3 4 6 7 8 8 9 10 11 12 13 14 15 16 17 17 18 19 21 22 23 24 25 24 23 23 24 24 23 23 23 23 23 24 25 26 27 27 29 33 38 43 47
221 223 225 231 239 246 250 254 257 260 264 270 277 282 286 292 294 294 294 298 305 311 315 319 324 328 332 336 340 342 342 343 346 348 350 350 352 353 355 357 358 0 2 3 4 6 7 8 8 9 10 12 13 14 15 16 16 17 17 18 19 21 22 23 24 25 25 24 24 24 24 24 25 26 25 24 24 25 25 26 27 28 29 31 38
220 223 226 231 237 244 250 254 257 259 263 269 274 279 284 289 291 290 291 295 301 307 312 315 319 323 326 330 333 334 336 337 340 343 346 347 349 350 351 353 355 357 359 0 2 3 5 7 8 8 9 10 11 13 14 15 16 16 17 17 18 19 20 21 23 24 25 25 25 25 25 24 25 26 27 27 27 27 26 25 25 26 25 24 24
220 224 227 231 236 242 248 253 256 258 261 265 270 275 280 285 287 287 289 292 298 304 308 312 316 319 321 324 327 329 331 331 334 337 341 343 345 347 348 349 351 353 355 357 358 0 2 4 6 7 8 9 10 11 13 14 15 16 16 17 17 18 18 20 21 22 23 24 24 25 25 25 25 25 25 26 27 28 28 28 27 26 25 24 23
220 224 229 232 237 242 247 252 256 258 260 263 268 271 274 278 283 286 287 290 296 301 304 308 313 317 318 320 322 325 326 327 329 332 335 337 340 342 344 345 347 348 350 352 354 356 358 0 2 4 6 7 8 9 11 12 13 15 15 16 16 16 16 17 19 20 21 22 23 24 25 26 26 26 25 24 24 25 26 27 28 29 29 27 25
221 225 229 233 238 243 248 252 256 258 259 262 265 267 269 273 279 283 286 289 293 297 301 304 308 312 315 317 319 321 322 324 326 327 329 331 334 337 339 341 342 344 345 347 349 351 354 356 358 360 2 4 6 7 7 9 10 12 13 14 15 15 15 15 16 17 18 19 21 22 23 24 25 26 26 26 25 25 24 24 24 26 28 29 28
223 227 230 234 239 245 250 253 255 257 259 261 263 265 268 271 276 280 284 288 291 294 298 301 303 306 310 312 315 317 319 321 322 323 324 326 328 331 333 335 337 339 341 341 343 345 348 350 352 354 357 359 2 3 5 6 7 8 10 12 12 13 14 14 14 15 15 16 18 20 20 21 22 23 25 26 26 27 26 25 23 23 24 23 23
225 228 232 237 242 247 251 254 255 257 259 261 262 265 269 272 276 279 282 285 289 292 295 297 300 302 305 308 310 313 315 317 318 320 320 321 323 325 327 329 331 334 335 336 337 339 341 343 345 348 350 353 355 358 360 2 3 5 6 8 9 11 12 13 13 14 14 14 15 16 17 18 19 20 21 22 23 25 26 26 25 25 25 23 20
228 231 235 240 245 249 252 254 256 258 260 261 263 266 269 273 276 280 282 284 287 289 291 294 296 298 300 303 305 308 310 312 314 315 316 317 318 319 321 323 326 328 330 331 332 334 336 338 339 341 343 346 349 351 354 356 359 1 3 4 5 7 8 9 11 12 12 12 13 14 14 15 15 16 17 17 18 19 21 22 23 23 24 24 23
231 234 239 243 248 251 253 255 256 258 260 262 264 267 270 273 276 279 282 285 286 288 290 292 294 296 297 299 301 303 305 307 309 311 312 313 314 315 316 318 321 323 325 326 327 328 330 332 334 336 338 340 342 344 347 350 352 355 357 359 1 2 3 5 6 7 8 9 11 12 12 11 11 12 13 13 13 13 13 14 16 16 17 18 19
233 237 242 246 249 252 254 255 257 259 261 263 266 268 271 273 276 279 281 284 286 287 288 290 291 293 295 296 298 299 301 302 304 306 308 309 310 311 312 314 316 319 321 322 323 324 325 326 328 329 331 333 335 337 340 342 344 347 350 352 354 356 358 360 1 2 3 5 6 7 8 8 8 8 8 8 8 8 8 7 7 7 8 9 10
235 239 243 247 250 253 254 255 258 260 262 264 267 270 272 274 277 279 281 283 285 286 287 288 289 291 292 294 295 296 298 299 300 302 304 305 305 306 307 309 311 314 316 317 318 320 321 322 323 324 325 326 328 330 331 333 335 338 341 343 346 348 351 353 355 357 358 359 0 2 3 3 3 4 4 4 4 3 2 1 360 359 358 359 359